Weather History for KARG - January, 2014

Change the Weather History Date:

Tuesday, January 28, 2014

  Actual Average Record
Temperature  
Mean Temperature 16 °F -  
Max Temperature 21 °F 44 °F 66 °F (2002)
Min Temperature 12 °F 29 °F 12 °F (2014)
Degree Days  
Heating Degree Days 48    
Moisture  
Dew Point -6 °F    
Average Humidity 37    
Maximum Humidity 62    
Minimum Humidity 28    
Precipitation  
Precipitation 0.00 in - - ()
Sea Level Pressure  
Sea Level Pressure 30.46 in    
Wind  
Wind Speed 11 mph (NNE)    
Max Wind Speed 17 mph    
Max Gust Speed 21 mph    
Visibility 10 miles    
Events      
Averages and records for this station are not official NWS values.
T = Trace of Precipitation, MM = Missing Value Source: NWS Daily Summary

Daily Weather History Graph

Daily Weather History Graph

Search for Another Location

Airport or City:

Trip Planner

Search our weather history database for the weather conditions in past years. The results will help you decide how hot, cold, wet, or windy it might be!

Date:

Astronomy

Jan. 28, 2014 Rise Set
Actual Time 7:07 AM CST 5:26 PM CST
Civil Twilight 6:40 AM CST 5:53 PM CST
Nautical Twilight 6:09 AM CST 6:24 PM CST
Astronomical Twilight 5:39 AM CST 6:54 PM CST
Moon 4:48 AM CST (1/28) 3:17 PM CST (1/28)
Length of Visible Light 11h 13m
Length of Day
10h 18m
Waning Crescent, 7% of the Moon is Illuminated
Jan 28
Waning Crescent
Jan 30
New
Feb 6
First Quarter
Feb 14
Full
Feb 22
Last Quarter

Hourly Weather History & Observations

Time (CST) Temp. Windchill Dew Point Humidity Pressure Visibility Wind Dir Wind Speed Gust Speed Precip Events Conditions
12:15 AM 19.4 °F 5.5 °F -5.8 °F 33% 30.45 in 10.0 mi NE 15.0 mph - N/A   Clear
12:35 AM 19.4 °F 5.5 °F -5.8 °F 33% 30.46 in 10.0 mi NNE 15.0 mph - N/A   Clear
12:55 AM 19.4 °F 4.5 °F -5.8 °F 33% 30.46 in 10.0 mi NNE 17.3 mph - N/A   Clear
1:15 AM 19.4 °F 6.0 °F -5.8 °F 33% 30.46 in 10.0 mi NNE 13.8 mph 20.7 mph N/A   Clear
1:35 AM 19.4 °F 5.5 °F -7.6 °F 30% 30.46 in 10.0 mi NNE 15.0 mph - N/A   Clear
1:55 AM 17.6 °F 3.7 °F -7.6 °F 32% 30.47 in 10.0 mi NNE 13.8 mph - N/A   Clear
2:15 AM 17.6 °F 3.7 °F -7.6 °F 32% 30.47 in 10.0 mi NNE 13.8 mph 19.6 mph N/A   Clear
2:35 AM 17.6 °F 5.0 °F -7.6 °F 32% 30.47 in 10.0 mi NNE 11.5 mph - N/A   Scattered Clouds
2:55 AM 17.6 °F 3.2 °F -5.8 °F 35% 30.46 in 10.0 mi NE 15.0 mph - N/A   Scattered Clouds
3:15 AM 17.6 °F 3.7 °F -5.8 °F 35% 30.47 in 10.0 mi NNE 13.8 mph - N/A   Partly Cloudy
3:35 AM 17.6 °F 5.0 °F -7.6 °F 32% 30.47 in 10.0 mi NE 11.5 mph - N/A   Scattered Clouds
3:55 AM 17.6 °F 3.7 °F -7.6 °F 32% 30.47 in 10.0 mi NNE 13.8 mph - N/A   Partly Cloudy
4:15 AM 17.6 °F 3.2 °F -7.6 °F 32% 30.46 in 10.0 mi NNE 15.0 mph - N/A   Mostly Cloudy
4:35 AM 15.8 °F 1.4 °F -7.6 °F 35% 30.47 in 10.0 mi NNE 13.8 mph - N/A   Mostly Cloudy
4:55 AM 15.8 °F 1.4 °F -7.6 °F 35% 30.47 in 10.0 mi NNE 13.8 mph - N/A   Overcast
5:15 AM 15.8 °F 3.4 °F -7.6 °F 35% 30.48 in 10.0 mi North 10.4 mph 16.1 mph N/A   Mostly Cloudy
5:35 AM 15.8 °F 3.4 °F -7.6 °F 35% 30.48 in 10.0 mi North 10.4 mph - N/A   Scattered Clouds
5:55 AM 15.8 °F 2.7 °F -7.6 °F 35% 30.50 in 10.0 mi NNE 11.5 mph - N/A   Mostly Cloudy
6:15 AM 15.8 °F 4.2 °F -7.6 °F 35% 30.49 in 10.0 mi North 9.2 mph - N/A   Partly Cloudy
6:35 AM 15.8 °F 2.7 °F -7.6 °F 35% 30.50 in 10.0 mi North 11.5 mph - N/A   Clear
6:55 AM 15.8 °F 3.4 °F -7.6 °F 35% 30.50 in 10.0 mi North 10.4 mph - N/A   Clear
7:15 AM 15.8 °F 3.4 °F -9.4 °F 32% 30.50 in 10.0 mi North 10.4 mph - N/A   Scattered Clouds
7:35 AM 15.8 °F 2.1 °F -7.6 °F 35% 30.51 in 10.0 mi North 12.7 mph - N/A   Partly Cloudy
7:55 AM 15.8 °F 2.1 °F -7.6 °F 35% 30.51 in 10.0 mi North 12.7 mph - N/A   Clear
8:15 AM 15.8 °F 2.1 °F -7.6 °F 35% 30.52 in 10.0 mi North 12.7 mph - N/A   Clear
8:35 AM 15.8 °F 2.1 °F -7.6 °F 35% 30.53 in 10.0 mi North 12.7 mph - N/A   Clear
8:55 AM 15.8 °F 2.7 °F -9.4 °F 32% 30.53 in 10.0 mi North 11.5 mph - N/A   Clear
9:15 AM 15.8 °F 1.4 °F -7.6 °F 35% 30.53 in 10.0 mi North 13.8 mph - N/A   Clear
9:35 AM 15.8 °F 5.1 °F -7.6 °F 35% 30.52 in 8.0 mi North 8.1 mph 16.1 mph N/A   Clear
9:55 AM 15.8 °F 1.4 °F -7.6 °F 35% 30.54 in 10.0 mi North 13.8 mph - N/A   Clear
10:15 AM 17.6 °F 4.3 °F -7.6 °F 32% 30.54 in 10.0 mi North 12.7 mph 17.3 mph N/A   Clear
10:35 AM 17.6 °F 8.2 °F -7.6 °F 32% 30.54 in 10.0 mi NNW 6.9 mph - N/A   Clear
10:55 AM 17.6 °F 7.3 °F -7.6 °F 32% 30.53 in 10.0 mi North 8.1 mph - N/A   Clear
11:15 AM 17.6 °F 5.7 °F -9.4 °F 30% 30.53 in 10.0 mi NNW 10.4 mph - N/A   Clear
11:35 AM 19.4 °F 9.5 °F -7.6 °F 30% 30.51 in 10.0 mi North 8.1 mph - N/A   Clear
11:55 AM 19.4 °F 8.6 °F -7.6 °F 30% 30.50 in 10.0 mi North 9.2 mph - N/A   Clear
12:15 PM 21.2 °F 11.7 °F -7.6 °F 28% 30.50 in 10.0 mi North 8.1 mph - N/A   Partly Cloudy
12:35 PM 19.4 °F 11.5 °F -9.4 °F 28% 30.49 in 10.0 mi NNW 5.8 mph - N/A   Partly Cloudy
12:55 PM 21.2 °F 12.6 °F -7.6 °F 28% 30.47 in 10.0 mi North 6.9 mph - N/A   Partly Cloudy
1:15 PM 21.2 °F 14.9 °F -7.6 °F 28% 30.46 in 10.0 mi WNW 4.6 mph - N/A   Clear
1:35 PM 19.4 °F 11.5 °F -7.6 °F 30% 30.45 in 10.0 mi North 5.8 mph - N/A   Clear
1:55 PM 19.4 °F 11.5 °F -5.8 °F 33% 30.44 in 10.0 mi ENE 5.8 mph - N/A   Clear
2:15 PM 19.4 °F - -5.8 °F 33% 30.43 in 10.0 mi Calm Calm - N/A   Clear
2:35 PM 21.2 °F 12.6 °F -5.8 °F 30% 30.43 in 10.0 mi North 6.9 mph - N/A   Clear
2:55 PM 21.2 °F 11.7 °F -5.8 °F 30% 30.41 in 10.0 mi North 8.1 mph - N/A   Clear
3:15 PM 21.2 °F 14.9 °F -7.6 °F 28% 30.41 in 10.0 mi North 4.6 mph - N/A   Clear
3:35 PM 21.2 °F 14.9 °F -5.8 °F 30% 30.41 in 10.0 mi NW 4.6 mph - N/A   Clear
3:55 PM 21.2 °F 11.7 °F -7.6 °F 28% 30.41 in 10.0 mi NW 8.1 mph - N/A   Clear
4:15 PM 21.2 °F - -5.8 °F 30% 30.41 in 10.0 mi Calm Calm - N/A   Clear
4:35 PM 21.2 °F 12.6 °F -5.8 °F 30% 30.39 in 10.0 mi North 6.9 mph - N/A   Clear
4:55 PM 21.2 °F 16.4 °F -5.8 °F 30% 30.41 in 10.0 mi NNW 3.5 mph - N/A   Clear
5:15 PM 19.4 °F 14.3 °F -5.8 °F 33% 30.40 in 10.0 mi NW 3.5 mph - N/A   Clear
5:35 PM 19.4 °F 14.3 °F -5.8 °F 33% 30.40 in 10.0 mi NW 3.5 mph - N/A   Clear
5:55 PM 19.4 °F - -5.8 °F 33% 30.40 in 10.0 mi Calm Calm - N/A   Clear
6:15 PM 19.4 °F - -5.8 °F 33% 30.40 in 10.0 mi Calm Calm - N/A   Clear
6:35 PM 17.6 °F 10.7 °F -2.2 °F 42% 30.40 in 10.0 mi East 4.6 mph - N/A   Clear
6:55 PM 17.6 °F 12.3 °F -2.2 °F 42% 30.41 in 10.0 mi ESE 3.5 mph - N/A   Clear
7:15 PM 17.6 °F 10.7 °F -0.4 °F 45% 30.42 in 10.0 mi ESE 4.6 mph - N/A   Clear
7:35 PM 15.8 °F 10.2 °F 1.4 °F 53% 30.42 in 10.0 mi SE 3.5 mph - N/A   Clear
7:55 PM 15.8 °F 8.6 °F -0.4 °F 49% 30.43 in 10.0 mi SSE 4.6 mph - N/A   Clear
8:15 PM 15.8 °F 8.6 °F -0.4 °F 49% 30.43 in 10.0 mi SSE 4.6 mph - N/A   Clear
8:35 PM 15.8 °F 8.6 °F 1.4 °F 53% 30.44 in 10.0 mi SSE 4.6 mph - N/A   Clear
8:55 PM 15.8 °F 10.2 °F -0.4 °F 49% 30.44 in 10.0 mi SSE 3.5 mph - N/A   Clear
9:15 PM 12.2 °F 6.1 °F -0.4 °F 57% 30.44 in 10.0 mi South 3.5 mph - N/A   Clear
9:35 PM 14.0 °F 5.1 °F -0.4 °F 53% 30.44 in 10.0 mi South 5.8 mph - N/A   Clear
9:55 PM 12.2 °F - 1.4 °F 62% 30.45 in 10.0 mi Calm Calm - N/A   Clear
10:15 PM 12.2 °F 6.1 °F -0.4 °F 57% 30.45 in 10.0 mi SSE 3.5 mph - N/A   Clear
10:35 PM 12.2 °F 6.1 °F 1.4 °F 62% 30.45 in 10.0 mi SSE 3.5 mph - N/A   Clear
10:55 PM 12.2 °F - -0.4 °F 57% 30.44 in 10.0 mi Calm Calm - N/A   Clear
11:15 PM 12.2 °F - -0.4 °F 57% 30.44 in 10.0 mi Calm Calm - N/A   Clear
11:35 PM 12.2 °F - -0.4 °F 57% 30.44 in 10.0 mi Calm Calm - N/A   Clear
11:55 PM 12.2 °F 4.3 °F -2.2 °F 53% 30.45 in 10.0 mi SW 4.6 mph - N/A   Clear